Location: Gairloch Mountain Observatory
(46.1383°N, 60.9640°W)
Time: 14:19:57
(UTC-03:00)

CENTAUR R/B - Visible Passes

Search period start: 27 March 2015 00:00
Search period end: 06 April 2015 00:00
Orbit: 887 x 1302 km, 63.5° (Epoch: 05 March)

Date Brightness Start Highest point End Pass type
(mag) Time Alt. Az. Time Alt. Az. Time Alt. Az.
27 Mar 5.3 05:41:30 10° SE 05:43:58 13° ESE 05:46:55 10° ENE visible
29 Mar 4.6 05:52:41 10° SSE 05:57:39 27° ESE 06:03:09 10° ENE visible
30 Mar 5.0 05:06:45 10° SE 05:09:59 15° ESE 05:13:40 10° ENE visible
31 Mar 3.5 06:05:35 10° SSW 06:11:31 50° ESE 06:18:07 10° NE visible
01 Apr 4.2 05:18:28 10° S 05:23:41 30° ESE 05:29:28 10° NE visible
02 Apr 4.8 04:32:11 10° SE 04:35:59 18° ESE 04:40:16 10° ENE visible
03 Apr 3.2 05:31:34 10° SSW 05:37:36 56° ESE 05:44:19 10° NE visible
04 Apr 3.9 04:44:17 10° S 04:49:44 34° ESE 04:55:46 10° NE visible
05 Apr 4.5 03:57:45 10° SSE 04:02:00 20° ESE 04:06:45 10° ENE visible
05 Apr 2.6 05:45:31 10° SW 05:51:48 84° NW 05:58:50 10° NE visible
